Location: Pel�-Koumbol�
(14.9505°N, 3.0798°W)
Time: 05:44:42
(UTC+00:00)

STARLINK-1024 - Pass Details

Date: 17 February 2020
Orbit: 549 x 550 km, 53.0° (Epoch: 07 April)

Event Time Altitude Azimuth Distance (km) Brightness Sun altitude
Exits shadow 05:31:26 20° 328° (NNW) 1,257 5.1 -16.2°
Maximum altitude 05:34:08 82° 53° (NE) 533 3.5 -15.5°
Drops below altitude 10° 05:38:08 10° 142° (SE) 1,762 6.9 -14.6°
Sets 05:40:20 0° 143° (SE) 2,654 7.9 -14.1°
